TimeEDT,TemperatureF,Dew PointF,Humidity,Sea Level PressureIn,VisibilityMPH,Wind Direction,Wind SpeedMPH,Gust SpeedMPH,PrecipitationIn,Events,Conditions,WindDirDegrees,DateUTC
12:53 AM,78.1,70.0,76,30.10,10.0,SE,5.8,-,N/A,,Clear,130,2013-05-18 04:53:00
1:53 AM,78.1,70.0,76,30.09,10.0,SE,3.5,-,N/A,,Mostly Cloudy,140,2013-05-18 05:53:00
2:53 AM,77.0,71.1,82,30.07,10.0,East,4.6,-,N/A,,Partly Cloudy,100,2013-05-18 06:53:00
3:42 AM,77.0,71.6,83,30.07,10.0,Calm,Calm,-,N/A,,Mostly Cloudy,0,2013-05-18 07:42:00
3:53 AM,77.0,71.1,82,30.07,10.0,Calm,Calm,-,0.00,Rain,Light Rain,0,2013-05-18 07:53:00
4:53 AM,75.9,71.1,85,30.08,10.0,Calm,Calm,-,N/A,,Partly Cloudy,0,2013-05-18 08:53:00
5:53 AM,75.0,71.1,87,30.08,10.0,Calm,Calm,-,N/A,,Clear,0,2013-05-18 09:53:00
6:53 AM,73.9,70.0,87,30.10,10.0,Calm,Calm,-,N/A,,Clear,0,2013-05-18 10:53:00
7:53 AM,78.1,72.0,81,30.11,10.0,Calm,Calm,-,N/A,,Partly Cloudy,0,2013-05-18 11:53:00
8:53 AM,81.0,72.0,74,30.12,10.0,SSE,5.8,-,N/A,,Clear,160,2013-05-18 12:53:00
9:37 AM,82.4,71.6,70,30.12,10.0,Variable,4.6,-,N/A,,Overcast,0,2013-05-18 13:37:00
9:53 AM,84.0,71.1,65,30.12,10.0,South,6.9,-,N/A,,Overcast,190,2013-05-18 13:53:00
10:30 AM,84.2,71.6,66,30.12,10.0,SSE,9.2,-,N/A,,Scattered Clouds,160,2013-05-18 14:30:00
10:53 AM,84.9,70.0,61,30.12,10.0,SE,12.7,18.4,N/A,,Scattered Clouds,130,2013-05-18 14:53:00
11:53 AM,81.0,72.0,74,30.13,10.0,ESE,9.2,-,0.01,Rain,Light Rain,120,2013-05-18 15:53:00
12:53 PM,82.9,73.0,72,30.11,10.0,ESE,13.8,-,0.05,,Mostly Cloudy,120,2013-05-18 16:53:00
1:53 PM,84.9,71.1,63,30.10,10.0,ESE,12.7,20.7,N/A,,Partly Cloudy,120,2013-05-18 17:53:00
3:53 PM,82.0,69.1,65,30.06,10.0,SE,13.8,-,N/A,,Mostly Cloudy,130,2013-05-18 19:53:00
4:53 PM,80.1,69.1,69,30.06,10.0,SE,12.7,-,0.00,,Mostly Cloudy,130,2013-05-18 20:53:00
5:53 PM,81.0,68.0,65,30.07,10.0,ESE,12.7,-,N/A,,Partly Cloudy,120,2013-05-18 21:53:00
6:53 PM,81.0,68.0,65,30.06,10.0,ESE,13.8,-,N/A,,Partly Cloudy,120,2013-05-18 22:53:00
7:53 PM,80.1,66.9,64,30.08,10.0,SE,10.4,-,N/A,,Mostly Cloudy,140,2013-05-18 23:53:00
8:53 PM,79.0,68.0,69,30.10,10.0,SE,9.2,-,N/A,,Mostly Cloudy,140,2013-05-19 00:53:00
9:53 PM,78.1,68.0,71,30.11,10.0,ESE,8.1,-,N/A,,Clear,110,2013-05-19 01:53:00
10:53 PM,78.1,69.1,74,30.11,10.0,ESE,6.9,-,N/A,,Partly Cloudy,110,2013-05-19 02:53:00
11:53 PM,77.0,69.1,76,30.11,10.0,ESE,5.8,-,N/A,,Clear,110,2013-05-19 03:53:00